| time (UTC) | temp F | wind direction | speed MPH | gust MPH | rain 1hr in | rain 24hr in | rain mn in | humidity % | barometer mb |
| 20260906021534 | 63 | 247 | 1.0 | 6.0 | 0.00 | 0.00 | 0.00 | 64 | 1017.5 |
| 20260906020109 | 64 | 260 | 2.0 | 5.0 | 0.00 | 0.00 | 0.00 | 61 | 1017.4 |
| 20260906014534 | 65 | 263 | 2.0 | 6.0 | 0.00 | 0.00 | 0.00 | 58 | 1017.5 |
| 20260906013142 | 66 | 267 | 2.0 | 7.0 | 0.00 | 0.00 | 0.00 | 59 | 1017.5 |
| 20260906010031 | 66 | 266 | 2.0 | 8.0 | 0.00 | 0.00 | 0.00 | 59 | 1017.7 |
| 20260906004537 | 66 | 223 | 3.0 | 10.0 | 0.00 | 0.00 | 0.00 | 58 | 1017.8 |
| 20260906003037 | 67 | 254 | 5.0 | 13.0 | 0.00 | 0.00 | 0.00 | 55 | 1017.8 |
| 20260906001529 | 70 | 263 | 5.0 | 11.0 | 0.00 | 0.00 | 0.00 | 50 | 1017.7 |
| 20260906000031 | 71 | 283 | 4.0 | 11.0 | 0.00 | 0.00 | 0.00 | 49 | 1017.5 |
| 20260905234535 | 70 | 293 | 2.0 | 8.0 | 0.00 | 0.00 | 0.00 | 51 | 1017.3 |
| 20260905233034 | 70 | 315 | 2.0 | 8.0 | 0.00 | 0.00 | 0.00 | 50 | 1017.5 |
| 20260905231535 | 71 | 344 | 3.0 | 7.0 | 0.00 | 0.00 | 0.00 | 49 | 1017.5 |
| 20260905224606 | 71 | 355 | 3.0 | 8.0 | 0.00 | 0.00 | 0.00 | 49 | 1017.5 |
| 20260905223045 | 72 | 26 | 2.0 | 7.0 | 0.00 | 0.00 | 0.00 | 48 | 1017.7 |
| 20260905221537 | 72 | 12 | 3.0 | 9.0 | 0.00 | 0.00 | 0.00 | 49 | 1017.8 |
| 20260905220141 | 70 | 7 | 1.0 | 7.0 | 0.00 | 0.00 | 0.00 | 53 | 1017.9 |
| 20260905214535 | 71 | 27 | 1.0 | 9.0 | 0.00 | 0.00 | 0.00 | 54 | 1018.1 |
| 20260905213109 | 69 | 339 | 0.0 | 5.0 | 0.00 | 0.00 | 0.00 | 58 | 1018.2 |
| 20260905211609 | 69 | 323 | 1.0 | 5.0 | 0.00 | 0.00 | 0.00 | 58 | 1018.5 |
| 20260905203035 | 68 | 78 | 1.0 | 8.0 | 0.00 | 0.00 | 0.00 | 59 | 1018.8 |
| 20260905200030 | 67 | 21 | 3.0 | 8.0 | 0.00 | 0.00 | 0.00 | 58 | 1019.0 |
| 20260905194642 | 66 | 358 | 3.0 | 10.0 | 0.00 | 0.00 | 0.00 | 60 | 1019.2 |
| 20260905193035 | 66 | 35 | 2.0 | 8.0 | 0.00 | 0.00 | 0.00 | 61 | 1019.2 |
| 20260905191532 | 67 | 53 | 1.0 | 7.0 | 0.00 | 0.00 | 0.00 | 63 | 1019.5 |
| 20260905190034 | 66 | 47 | 1.0 | 5.0 | 0.00 | 0.00 | 0.00 | 65 | 1019.6 |
| 20260905184532 | 66 | 10 | 0.0 | 6.0 | 0.00 | 0.00 | 0.00 | 67 | 1019.8 |
| 20260905183043 | 66 | 318 | 0.0 | 4.0 | 0.00 | 0.00 | 0.00 | 70 | 1019.8 |
| 20260905181536 | 64 | 300 | 0.0 | 3.0 | 0.00 | 0.00 | 0.00 | 73 | 1020.1 |
| 20260905180034 | 63 | 13 | 0.0 | 3.0 | 0.00 | 0.00 | 0.00 | 74 | 1020.2 |
| 20260905174534 | 63 | 206 | 0.0 | 1.0 | 0.00 | 0.00 | 0.00 | 77 | 1020.2 |
| 20260905173031 | 61 | 111 | 0.0 | 2.0 | 0.00 | 0.00 | 0.00 | 80 | 1020.2 |
| 20260905171534 | 60 | 47 | 0.0 | 2.0 | 0.00 | 0.00 | 0.00 | 82 | 1020.3 |
| 20260905170034 | 59 | 359 | 0.0 | 3.0 | 0.00 | 0.00 | 0.00 | 84 | 1020.3 |
| 20260905164533 | 58 | 22 | 0.0 | 1.0 | 0.00 | 0.00 | 0.00 | 86 | 1020.3 |
| 20260905163034 | 58 | 61 | 0.0 | 0.0 | 0.00 | 0.00 | 0.00 | 89 | 1020.2 |
| 20260905161641 | 56 | 67 | 0.0 | 0.0 | 0.00 | 0.00 | 0.00 | 91 | 1020.3 |
| 20260905160035 | 55 | 65 | 0.0 | 0.0 | 0.00 | 0.00 | 0.00 | 93 | 1020.3 |
| 20260905154536 | 54 | 69 | 0.0 | 0.0 | 0.00 | 0.00 | 0.00 | 94 | 1020.3 |
| 20260905153108 | 54 | 112 | 0.0 | 0.0 | 0.00 | 0.00 | 0.00 | 94 | 1020.2 |
| 20260905151535 | 53 | 112 | 0.0 | 0.0 | 0.00 | 0.00 | 0.00 | 94 | 1020.2 |
| 20260905144530 | 52 | 112 | 0.0 | 0.0 | 0.00 | 0.00 | 0.00 | 94 | 1020.1 |
| 20260905143030 | 52 | 112 | 0.0 | 0.0 | 0.00 | 0.00 | 0.00 | 94 | 1020.1 |
| 20260905141533 | 51 | 112 | 0.0 | 0.0 | 0.00 | 0.00 | 0.00 | 94 | 1020.0 |
| 20260905140032 | 50 | 107 | 0.0 | 0.0 | 0.00 | 0.00 | 0.00 | 94 | 1019.8 |
| 20260905134535 | 50 | 128 | 0.0 | 0.0 | 0.00 | 0.00 | 0.00 | 93 | 1019.6 |
| 20260905133146 | 49 | 149 | 0.0 | 0.0 | 0.00 | 0.00 | 0.00 | 93 | 1019.4 |
| 20260905131534 | 49 | 116 | 0.0 | 0.0 | 0.00 | 0.00 | 0.00 | 93 | 1019.5 |
| 20260905130035 | 49 | 112 | 0.0 | 0.0 | 0.00 | 0.00 | 0.00 | 92 | 1019.4 |
| 20260905124537 | 49 | 112 | 0.0 | 0.0 | 0.00 | 0.00 | 0.00 | 92 | 1019.3 |
| 20260905123036 | 50 | 112 | 0.0 | 0.0 | 0.00 | 0.00 | 0.00 | 92 | 1019.3 |
| 20260905121534 | 52 | 112 | 0.0 | 0.0 | 0.00 | 0.00 | 0.00 | 92 | 1019.3 |
| 20260905120035 | 52 | 112 | 0.0 | 0.0 | 0.00 | 0.00 | 0.00 | 92 | 1019.3 |
| 20260905114533 | 52 | 116 | 0.0 | 0.0 | 0.00 | 0.00 | 0.00 | 91 | 1019.2 |
| 20260905113030 | 52 | 125 | 0.0 | 0.0 | 0.00 | 0.00 | 0.00 | 91 | 1019.2 |
| 20260905111537 | 52 | 135 | 0.0 | 0.0 | 0.00 | 0.00 | 0.00 | 91 | 1019.1 |
| 20260905110036 | 52 | 135 | 0.0 | 0.0 | 0.00 | 0.00 | 0.00 | 90 | 1019.1 |
| 20260905104535 | 52 | 131 | 0.0 | 0.0 | 0.00 | 0.00 | 0.00 | 90 | 1019.1 |
| 20260905103037 | 53 | 101 | 0.0 | 0.0 | 0.00 | 0.00 | 0.00 | 90 | 1019.1 |
| 20260905100037 | 54 | 90 | 0.0 | 0.0 | 0.00 | 0.00 | 0.00 | 89 | 1019.1 |
| 20260905094535 | 54 | 90 | 0.0 | 0.0 | 0.00 | 0.00 | 0.00 | 89 | 1019.1 |
| 20260905093033 | 54 | 102 | 0.0 | 0.0 | 0.00 | 0.00 | 0.00 | 89 | 1019.1 |
| 20260905090036 | 54 | 135 | 0.0 | 0.0 | 0.00 | 0.00 | 0.00 | 89 | 1018.9 |
| 20260905084531 | 54 | 135 | 0.0 | 0.0 | 0.00 | 0.00 | 0.00 | 89 | 1018.9 |
| 20260905083036 | 54 | 135 | 0.0 | 0.0 | 0.00 | 0.00 | 0.00 | 88 | 1018.8 |
| 20260905080106 | 54 | 135 | 0.0 | 0.0 | 0.00 | 0.00 | 0.00 | 87 | 1018.7 |
| 20260905073033 | 53 | 104 | 0.0 | 0.0 | 0.00 | 0.00 | 0.00 | 85 | 1018.3 |
| 20260905071533 | 53 | 304 | 0.0 | 0.0 | 0.00 | 0.00 | 0.00 | 83 | 1018.2 |
| 20260905070035 | 54 | 292 | 0.0 | 0.0 | 0.00 | 0.00 | 0.00 | 82 | 1018.1 |
| 20260905064536 | 55 | 280 | 0.0 | 0.0 | 0.00 | 0.00 | 0.00 | 81 | 1017.9 |
| 20260905063035 | 55 | 268 | 0.0 | 1.0 | 0.00 | 0.00 | 0.00 | 81 | 1017.9 |
| 20260905061532 | 55 | 203 | 0.0 | 3.0 | 0.00 | 0.00 | 0.00 | 80 | 1017.8 |
| 20260905060106 | 55 | 270 | 0.0 | 0.0 | 0.00 | 0.00 | 0.00 | 77 | 1017.8 |
| 20260905054535 | 57 | 270 | 0.0 | 0.0 | 0.00 | 0.00 | 0.00 | 74 | 1017.7 |
| 20260905053036 | 58 | 270 | 0.0 | 1.0 | 0.00 | 0.00 | 0.00 | 70 | 1017.7 |
| 20260905051535 | 59 | 230 | 0.0 | 4.0 | 0.00 | 0.00 | 0.00 | 70 | 1017.5 |
| 20260905044537 | 59 | 231 | 1.0 | 6.0 | 0.00 | 0.00 | 0.00 | 71 | 1017.5 |
| 20260905043036 | 58 | 225 | 0.0 | 5.0 | 0.00 | 0.00 | 0.00 | 71 | 1017.4 |
| 20260905041535 | 57 | 232 | 0.0 | 5.0 | 0.00 | 0.00 | 0.00 | 73 | 1017.5 |
| 20260905040143 | 57 | 233 | 0.0 | 4.0 | 0.00 | 0.00 | 0.00 | 75 | 1017.4 |
| 20260905034534 | 57 | 256 | 0.0 | 3.0 | 0.00 | 0.00 | 0.00 | 75 | 1017.1 |
| 20260905033034 | 58 | 232 | 0.0 | 4.0 | 0.00 | 0.00 | 0.00 | 75 | 1017.0 |
| 20260905031650 | 57 | 259 | 0.0 | 4.0 | 0.00 | 0.00 | 0.00 | 74 | 1016.9 |
| 20260905030149 | 58 | 266 | 0.0 | 4.0 | 0.00 | 0.00 | 0.00 | 73 | 1016.8 |
| 20260905024536 | 59 | 277 | 1.0 | 4.0 | 0.00 | 0.00 | 0.00 | 70 | 1016.8 |
| 20260905023037 | 61 | 288 | 1.0 | 3.0 | 0.00 | 0.00 | 0.00 | 67 | 1016.8 |